• In Belgien
  • Länderverzeichnis
  • Für 7 Tage
  • Wassertemperatur
  • Satellitenkarten
  • Wetterkarte
  • Widgets
  • user-avatar
    Anmelden

    Stündliche Wetter Lemnos

    Heute, 24 Oktober, Dienstag

    Zeit Temperatur Niederschläge Wind Luftdruck Luftfeuchtigkeit
    00:00 +20°C° 1 mm 8 m/S 747 mmHg 69%
    01:00 +20°C° 1 mm 7 m/S 746 mmHg 66%
    02:00 +20°C° 1 mm 6 m/S 746 mmHg 63%
    03:00 +20°C° 0,5 mm 6 m/S 746 mmHg 64%
    04:00 +19°C° 0,5 mm 6 m/S 746 mmHg 65%
    05:00 +19°C° 0,5 mm 5 m/S 746 mmHg 65%
    06:00 +17°C° 0,2 mm 5 m/S 746 mmHg 63%
    07:00 +17°C° 0,2 mm 5 m/S 747 mmHg 61%
    08:00 +16°C° 0,2 mm 5 m/S 747 mmHg 60%
    09:00 +17°C° 0,2 mm 5 m/S 747 mmHg 56%
    10:00 +17°C° 0,2 mm 5 m/S 748 mmHg 51%
    11:00 +19°C° 0,2 mm 4 m/S 748 mmHg 47%
    12:00 +19°C° 0 mm 4 m/S 748 mmHg 45%
    13:00 +20°C° 0 mm 3 m/S 749 mmHg 43%
    14:00 +20°C° 0 mm 3 m/S 749 mmHg 41%
    15:00 +20°C° 0 mm 2 m/S 749 mmHg 41%
    16:00 +21°C° 0 mm 1 m/S 749 mmHg 41%
    17:00 +19°C° 0 mm 0 m/S 750 mmHg 40%
    18:00 +20°C° 0,1 mm 1 m/S 750 mmHg 42%
    19:00 +20°C° 0,1 mm 1 m/S 751 mmHg 44%
    20:00 +20°C° 0,1 mm 1 m/S 751 mmHg 46%
    21:00 +19°C° 0,1 mm 2 m/S 752 mmHg 49%
    22:00 +19°C° 0,1 mm 3 m/S 752 mmHg 51%
    23:00 +19°C° 0,1 mm 3 m/S 753 mmHg 53%

    Morgen, 25 Oktober, Mittwoch

    Zeit Temperatur Niederschläge Wind Luftdruck Luftfeuchtigkeit
    00:00 +19°C° 0,2 mm 4 m/S 753 mmHg 57%
    01:00 +18°C° 0,2 mm 4 m/S 754 mmHg 60%
    02:00 +18°C° 0,2 mm 4 m/S 754 mmHg 64%
    03:00 +17°C° 0,2 mm 5 m/S 754 mmHg 66%
    04:00 +17°C° 0,2 mm 5 m/S 754 mmHg 68%
    05:00 +17°C° 0,2 mm 6 m/S 755 mmHg 71%
    06:00 +17°C° 0,9 mm 6 m/S 755 mmHg 72%
    07:00 +17°C° 0,9 mm 6 m/S 756 mmHg 73%
    08:00 +17°C° 0,9 mm 7 m/S 756 mmHg 74%
    09:00 +18°C° 0,4 mm 7 m/S 757 mmHg 72%
    10:00 +18°C° 0,4 mm 7 m/S 758 mmHg 71%
    11:00 +18°C° 0,4 mm 7 m/S 758 mmHg 69%
    12:00 +18°C° 0,6 mm 9 m/S 758 mmHg 68%
    13:00 +18°C° 0,6 mm 10 m/S 759 mmHg 68%
    14:00 +19°C° 0,6 mm 12 m/S 759 mmHg 68%
    15:00 +18°C° 0 mm 12 m/S 759 mmHg 68%
    16:00 +17°C° 0 mm 13 m/S 760 mmHg 68%
    17:00 +17°C° 0 mm 13 m/S 760 mmHg 69%
    18:00 +17°C° 0 mm 13 m/S 761 mmHg 68%
    19:00 +15°C° 0 mm 13 m/S 761 mmHg 68%
    20:00 +15°C° 0 mm 13 m/S 762 mmHg 67%
    21:00 +15°C° 0,1 mm 13 m/S 763 mmHg 68%
    22:00 +15°C° 0,1 mm 13 m/S 763 mmHg 68%
    23:00 +15°C° 0,1 mm 12 m/S 764 mmHg 68%

    übermorgen, 26 Oktober, Donnerstag

    Zeit Temperatur Niederschläge Wind Luftdruck Luftfeuchtigkeit
    00:00 +15°C° 0,3 mm 12 m/S 764 mmHg 67%
    01:00 +15°C° 0,3 mm 12 m/S 764 mmHg 67%
    02:00 +15°C° 0,3 mm 12 m/S 764 mmHg 66%
    03:00 +16°C° 0,1 mm 11 m/S 764 mmHg 65%
    04:00 +16°C° 0,1 mm 11 m/S 765 mmHg 63%
    05:00 +16°C° 0,1 mm 10 m/S 765 mmHg 61%
    06:00 +16°C° 0 mm 10 m/S 765 mmHg 60%
    07:00 +16°C° 0 mm 10 m/S 766 mmHg 59%
    08:00 +16°C° 0 mm 10 m/S 766 mmHg 58%
    09:00 +17°C° 0 mm 10 m/S 766 mmHg 56%
    10:00 +17°C° 0 mm 9 m/S 766 mmHg 54%
    11:00 +17°C° 0 mm 9 m/S 767 mmHg 51%
    12:00 +17°C° 0 mm 8 m/S 766 mmHg 51%
    13:00 +18°C° 0 mm 8 m/S 766 mmHg 50%
    14:00 +18°C° 0 mm 7 m/S 766 mmHg 49%
    15:00 +17°C° 0 mm 7 m/S 766 mmHg 50%
    16:00 +17°C° 0 mm 6 m/S 765 mmHg 51%
    17:00 +17°C° 0 mm 6 m/S 765 mmHg 52%
    18:00 +17°C° 0 mm 6 m/S 765 mmHg 54%
    19:00 +17°C° 0 mm 6 m/S 765 mmHg 56%
    20:00 +16°C° 0 mm 6 m/S 766 mmHg 58%
    21:00 +16°C° 0 mm 6 m/S 765 mmHg 59%
    22:00 +16°C° 0 mm 6 m/S 765 mmHg 59%
    23:00 +16°C° 0 mm 5 m/S 765 mmHg 60%

    27 Oktober, Freitag

    Zeit Temperatur Niederschläge Wind Luftdruck Luftfeuchtigkeit
    00:00 +16°C° 0 mm 5 m/S 765 mmHg 62%
    01:00 +16°C° 0 mm 5 m/S 765 mmHg 63%
    02:00 +16°C° 0 mm 5 m/S 764 mmHg 64%
    03:00 +16°C° 0 mm 5 m/S 764 mmHg 65%
    04:00 +16°C° 0 mm 5 m/S 764 mmHg 65%
    05:00 +15°C° 0 mm 4 m/S 763 mmHg 66%
    06:00 +16°C° 0 mm 5 m/S 763 mmHg 66%
    07:00 +16°C° 0 mm 5 m/S 763 mmHg 66%
    08:00 +16°C° 0 mm 5 m/S 763 mmHg 65%
    09:00 +17°C° 0 mm 5 m/S 763 mmHg 63%
    10:00 +19°C° 0 mm 5 m/S 762 mmHg 60%
    11:00 +19°C° 0 mm 5 m/S 762 mmHg 57%
    12:00 +19°C° 0 mm 4 m/S 761 mmHg 56%
    13:00 +20°C° 0 mm 4 m/S 761 mmHg 55%
    14:00 +20°C° 0 mm 3 m/S 760 mmHg 53%
    15:00 +20°C° 0 mm 3 m/S 759 mmHg 55%
    16:00 +19°C° 0 mm 2 m/S 759 mmHg 56%
    17:00 +19°C° 0 mm 2 m/S 758 mmHg 58%
    18:00 +19°C° 0 mm 2 m/S 758 mmHg 59%
    19:00 +18°C° 0 mm 2 m/S 758 mmHg 60%
    20:00 +18°C° 0 mm 2 m/S 758 mmHg 61%
    21:00 +18°C° 0 mm 2 m/S 758 mmHg 61%
    22:00 +19°C° 0 mm 1 m/S 757 mmHg 62%
    23:00 +19°C° 0 mm 1 m/S 757 mmHg 62%

    28 Oktober, Samstag

    Zeit Temperatur Niederschläge Wind Luftdruck Luftfeuchtigkeit
    00:00 +19°C° 0 mm 1 m/S 756 mmHg 63%
    01:00 +18°C° 0 mm 1 m/S 756 mmHg 63%
    02:00 +18°C° 0 mm 1 m/S 755 mmHg 63%
    03:00 +18°C° 0 mm 1 m/S 755 mmHg 64%
    04:00 +18°C° 0 mm 2 m/S 754 mmHg 64%
    05:00 +18°C° 0 mm 2 m/S 754 mmHg 65%
    06:00 +18°C° 0 mm 2 m/S 754 mmHg 65%
    07:00 +18°C° 0 mm 3 m/S 754 mmHg 64%
    08:00 +19°C° 0 mm 3 m/S 753 mmHg 64%
    09:00 +19°C° 0 mm 3 m/S 754 mmHg 61%
    10:00 +20°C° 0 mm 3 m/S 754 mmHg 58%
    11:00 +21°C° 0 mm 2 m/S 754 mmHg 56%
    12:00 +21°C° 0 mm 2 m/S 753 mmHg 55%
    13:00 +21°C° 0 mm 2 m/S 753 mmHg 54%
    14:00 +22°C° 0 mm 1 m/S 753 mmHg 53%
    15:00 +21°C° 0 mm 2 m/S 753 mmHg 55%
    16:00 +20°C° 0 mm 2 m/S 753 mmHg 57%
    17:00 +20°C° 0 mm 2 m/S 753 mmHg 59%
    18:00 +20°C° 0 mm 2 m/S 753 mmHg 63%
    19:00 +19°C° 0 mm 3 m/S 753 mmHg 66%
    20:00 +19°C° 0 mm 3 m/S 753 mmHg 70%
    21:00 +19°C° 0 mm 3 m/S 753 mmHg 71%
    22:00 +19°C° 0 mm 3 m/S 753 mmHg 72%
    23:00 +19°C° 0 mm 4 m/S 753 mmHg 73%

    29 Oktober, Sonntag

    Zeit Temperatur Niederschläge Wind Luftdruck Luftfeuchtigkeit
    00:00 +18°C° 0 mm 4 m/S 753 mmHg 75%
    01:00 +18°C° 0 mm 4 m/S 752 mmHg 76%
    02:00 +18°C° 0 mm 4 m/S 752 mmHg 77%
    03:00 +18°C° 0 mm 4 m/S 752 mmHg 77%
    04:00 +17°C° 0 mm 5 m/S 751 mmHg 76%
    05:00 +17°C° 0 mm 5 m/S 751 mmHg 76%
    06:00 +17°C° 0,1 mm 5 m/S 751 mmHg 72%
    07:00 +17°C° 0,1 mm 6 m/S 750 mmHg 68%
    08:00 +19°C° 0,1 mm 6 m/S 750 mmHg 65%
    09:00 +19°C° 0,1 mm 6 m/S 750 mmHg 64%
    10:00 +20°C° 0,1 mm 5 m/S 749 mmHg 63%
    11:00 +21°C° 0,1 mm 5 m/S 749 mmHg 63%
    12:00 +21°C° 0,1 mm 6 m/S 749 mmHg 63%
    13:00 +21°C° 0,1 mm 6 m/S 748 mmHg 64%
    14:00 +21°C° 0,1 mm 6 m/S 747 mmHg 65%
    15:00 +21°C° 0,4 mm 6 m/S 747 mmHg 65%
    16:00 +20°C° 0,4 mm 6 m/S 747 mmHg 66%
    17:00 +20°C° 0,4 mm 6 m/S 746 mmHg 67%
    18:00 +20°C° 0,6 mm 7 m/S 746 mmHg 70%
    19:00 +20°C° 0,6 mm 7 m/S 746 mmHg 72%
    20:00 +18°C° 0,6 mm 8 m/S 746 mmHg 75%
    21:00 +19°C° 0,4 mm 9 m/S 746 mmHg 75%
    22:00 +19°C° 0,4 mm 10 m/S 746 mmHg 76%
    23:00 +21°C° 0,4 mm 11 m/S 746 mmHg 77%

    30 Oktober, Montag

    Zeit Temperatur Niederschläge Wind Luftdruck Luftfeuchtigkeit
    00:00 +21°C° 0,2 mm 12 m/S 745 mmHg 75%
    01:00 +21°C° 0,2 mm 12 m/S 745 mmHg 73%
    02:00 +20°C° 0,2 mm 13 m/S 745 mmHg 71%
    03:00 +20°C° 0 mm 13 m/S 745 mmHg 70%
    04:00 +20°C° 0 mm 13 m/S 744 mmHg 70%
    05:00 +20°C° 0 mm 13 m/S 744 mmHg 69%
    06:00 +20°C° 0 mm 13 m/S 744 mmHg 69%
    07:00 +20°C° 0 mm 13 m/S 744 mmHg 69%
    08:00 +20°C° 0 mm 13 m/S 745 mmHg 69%
    09:00 +20°C° 0,2 mm 13 m/S 745 mmHg 65%
    10:00 +20°C° 0,2 mm 14 m/S 745 mmHg 61%
    11:00 +20°C° 0,2 mm 14 m/S 746 mmHg 57%
    12:00 +20°C° 0,8 mm 13 m/S 746 mmHg 52%
    13:00 +19°C° 0,8 mm 12 m/S 746 mmHg 47%
    14:00 +19°C° 0,8 mm 11 m/S 746 mmHg 42%
    15:00 +19°C° 0,3 mm 11 m/S 746 mmHg 43%
    16:00 +19°C° 0,3 mm 10 m/S 746 mmHg 44%
    17:00 +18°C° 0,3 mm 10 m/S 747 mmHg 45%
    18:00 +18°C° 0 mm 10 m/S 747 mmHg 44%
    19:00 +18°C° 0 mm 11 m/S 748 mmHg 44%
    20:00 +17°C° 0 mm 11 m/S 748 mmHg 43%
    21:00 +16°C° 0 mm 11 m/S 749 mmHg 45%
    22:00 +15°C° 0 mm 12 m/S 749 mmHg 46%
    23:00 +14°C° 0 mm 12 m/S 750 mmHg 48%
    Mehr zeigen